Volver al catálogo

MORELOS 1 R/B

PAM-D

ActivoGTO
NORAD 15832·ROCKET BODY·🇺🇸 United States

Lanzado Jun 17, 1985 desde Cape Canaveral Space Force Station

Loading…

TLE

EnvejeciendoSource: Space-Track

Época: Sep 14, 2026, 12:15 UTC

1 15832U 85048F   26257.51063873  .00000230  00000-0  73941-3 0  9991
2 15832  25.8742   3.2214 7134317 250.3226  24.8808  2.39105602298037

Sigue MORELOS 1 R/B en tiempo real con AllMySat

Download on the App Store